Time,TemperatureF,DewpointF,PressureIn,WindDirection,WindDirectionDegrees,WindSpeedMPH,WindSpeedGustMPH,Humidity,HourlyPrecipIn,Conditions,Clouds,dailyrainin,SoftwareType,DateUTC
2013-11-03 00:02:00,-999.0,-99.9,30.28,ENE,70,0.0,-999.0,-999,-99.99,,,-99.99,,2013-11-03 04:02:00,
2013-11-03 00:14:00,31.0,22.0,30.28,ENE,70,0.0,-999.0,70,-99.99,,,-99.99,,2013-11-03 04:14:00,
2013-11-03 00:23:00,31.0,23.0,30.28,ENE,70,0.0,-999.0,71,-99.99,,,-99.99,,2013-11-03 04:23:00,
2013-11-03 00:44:00,31.0,22.0,30.29,East,90,1.0,-999.0,69,-99.99,,,-99.99,,2013-11-03 04:44:00,
2013-11-03 00:52:00,31.0,21.0,30.29,East,95,3.0,-999.0,65,-99.99,,,-99.99,,2013-11-03 04:52:00,
2013-11-03 01:13:00,31.0,21.0,30.30,ENE,65,2.0,-999.0,65,-99.99,,,-99.99,,2013-11-03 05:13:00,
2013-11-03 01:23:00,30.0,20.0,30.31,ENE,67,2.0,-999.0,67,-99.99,,,-99.99,,2013-11-03 05:23:00,
2013-11-03 01:43:00,30.0,20.0,30.32,ENE,64,2.0,-999.0,67,-99.99,,,-99.99,,2013-11-03 05:43:00,
2013-11-03 01:53:00,29.0,20.0,30.32,East,82,2.0,-999.0,68,-99.99,,,-99.99,,2013-11-03 05:53:00,
2013-11-03 01:13:00,29.0,20.0,30.33,ENE,78,1.0,-999.0,69,-99.99,,,-99.99,,2013-11-03 06:13:00,
2013-11-03 01:23:00,29.0,20.0,30.33,ENE,78,0.0,-999.0,69,-99.99,,,-99.99,,2013-11-03 06:23:00,
2013-11-03 01:43:00,28.0,20.0,30.34,ENE,78,1.0,-999.0,70,-99.99,,,-99.99,,2013-11-03 06:43:00,
2013-11-03 01:53:00,27.0,20.0,30.34,ENE,78,1.0,-999.0,74,-99.99,,,-99.99,,2013-11-03 06:53:00,
2013-11-03 02:11:00,27.0,20.0,30.35,ENE,78,1.0,-999.0,75,-99.99,,,-99.99,,2013-11-03 07:11:00,
2013-11-03 02:22:00,27.0,20.0,30.35,ENE,78,1.0,-999.0,76,-99.99,,,-99.99,,2013-11-03 07:22:00,
2013-11-03 02:42:00,26.0,20.0,30.36,ENE,78,1.0,-999.0,77,-99.99,,,-99.99,,2013-11-03 07:42:00,
2013-11-03 02:52:00,26.0,20.0,30.36,ENE,78,1.0,-999.0,77,-99.99,,,-99.99,,2013-11-03 07:52:00,
2013-11-03 03:11:00,26.0,19.0,30.36,ENE,78,1.0,-999.0,76,-99.99,,,-99.99,,2013-11-03 08:11:00,
2013-11-03 03:21:00,26.0,20.0,30.37,ENE,78,2.0,-999.0,77,-99.99,,,-99.99,,2013-11-03 08:21:00,
2013-11-03 03:42:00,25.0,19.0,30.38,ENE,78,1.0,-999.0,79,-99.99,,,-99.99,,2013-11-03 08:42:00,
2013-11-03 03:52:00,25.0,19.0,30.38,ENE,76,1.0,-999.0,79,-99.99,,,-99.99,,2013-11-03 08:52:00,
2013-11-03 04:12:00,26.0,20.0,30.39,ENE,66,2.0,-999.0,78,-99.99,,,-99.99,,2013-11-03 09:12:00,
2013-11-03 04:22:00,25.0,19.0,30.39,ENE,65,1.0,-999.0,79,-99.99,,,-99.99,,2013-11-03 09:22:00,
2013-11-03 04:42:00,25.0,20.0,30.40,ENE,65,1.0,-999.0,81,-99.99,,,-99.99,,2013-11-03 09:42:00,
2013-11-03 04:53:00,25.0,20.0,30.40,ENE,65,2.0,-999.0,81,-99.99,,,-99.99,,2013-11-03 09:53:00,
2013-11-03 05:13:00,25.0,20.0,30.41,ENE,65,1.0,-999.0,81,-99.99,,,-99.99,,2013-11-03 10:13:00,
2013-11-03 05:23:00,25.0,20.0,30.42,ENE,65,1.0,-999.0,81,-99.99,,,-99.99,,2013-11-03 10:23:00,
2013-11-03 05:42:00,25.0,20.0,30.42,ENE,65,0.0,-999.0,82,-99.99,,,-99.99,,2013-11-03 10:42:00,
2013-11-03 05:52:00,25.0,21.0,30.43,ENE,65,0.0,-999.0,83,-99.99,,,-99.99,,2013-11-03 10:52:00,
2013-11-03 06:12:00,25.0,21.0,30.43,ENE,65,0.0,-999.0,83,-99.99,,,-99.99,,2013-11-03 11:12:00,
2013-11-03 06:22:00,25.0,21.0,30.43,ENE,65,1.0,-999.0,83,-99.99,,,-99.99,,2013-11-03 11:22:00,
2013-11-03 06:43:00,26.0,21.0,30.43,ENE,66,1.0,-999.0,82,-99.99,,,-99.99,,2013-11-03 11:43:00,
2013-11-03 06:52:00,26.0,21.0,30.44,ENE,65,1.0,-999.0,81,-99.99,,,-99.99,,2013-11-03 11:52:00,
2013-11-03 07:12:00,26.0,22.0,30.45,ENE,65,0.0,-999.0,83,-99.99,,,-99.99,,2013-11-03 12:12:00,
2013-11-03 07:22:00,26.0,22.0,30.45,ENE,65,0.0,-999.0,83,-99.99,,,-99.99,,2013-11-03 12:22:00,
2013-11-03 07:42:00,26.0,21.0,30.45,ENE,65,0.0,-999.0,82,-99.99,,,-99.99,,2013-11-03 12:42:00,
2013-11-03 07:52:00,26.0,21.0,30.46,ENE,65,0.0,-999.0,82,-99.99,,,-99.99,,2013-11-03 12:52:00,
2013-11-03 08:12:00,27.0,22.0,30.47,ENE,65,0.0,-999.0,81,-99.99,,,-99.99,,2013-11-03 13:12:00,
2013-11-03 08:22:00,27.0,22.0,30.48,ENE,69,1.0,-999.0,80,-99.99,,,-99.99,,2013-11-03 13:22:00,
2013-11-03 08:42:00,28.0,22.0,30.48,ENE,71,1.0,-999.0,78,-99.99,,,-99.99,,2013-11-03 13:42:00,
2013-11-03 08:52:00,29.0,23.0,30.48,ENE,69,2.0,-999.0,77,-99.99,,,-99.99,,2013-11-03 13:52:00,
2013-11-03 09:12:00,29.0,22.0,30.49,East,83,1.0,-999.0,76,-99.99,,,-99.99,,2013-11-03 14:12:00,
2013-11-03 09:22:00,30.0,22.0,30.49,ESE,121,2.0,-999.0,73,-99.99,,,-99.99,,2013-11-03 14:22:00,
2013-11-03 09:42:00,31.0,22.0,30.50,East,98,1.0,-999.0,70,-99.99,,,-99.99,,2013-11-03 14:42:00,
2013-11-03 09:52:00,31.0,22.0,30.50,ESE,105,2.0,-999.0,69,-99.99,,,-99.99,,2013-11-03 14:52:00,
2013-11-03 10:11:00,32.0,23.0,30.50,ENE,71,4.0,-999.0,68,-99.99,,,-99.99,,2013-11-03 15:11:00,
2013-11-03 10:22:00,32.0,22.0,30.51,East,84,3.0,-999.0,65,-99.99,,,-99.99,,2013-11-03 15:22:00,
2013-11-03 10:43:00,33.0,22.0,30.51,ESE,106,2.0,-999.0,64,-99.99,,,-99.99,,2013-11-03 15:43:00,
2013-11-03 10:53:00,35.0,24.0,30.51,ESE,118,3.0,-999.0,64,-99.99,,,-99.99,,2013-11-03 15:53:00,
2013-11-03 11:14:00,35.0,24.0,30.51,ESE,113,5.0,-999.0,63,-99.99,,,-99.99,,2013-11-03 16:14:00,
2013-11-03 11:23:00,36.0,25.0,30.51,SSE,153,5.0,-999.0,63,-99.99,,,-99.99,,2013-11-03 16:23:00,
2013-11-03 11:43:00,36.0,25.0,30.51,ESE,119,6.0,-999.0,64,-99.99,,,-99.99,,2013-11-03 16:43:00,
2013-11-03 11:53:00,37.0,27.0,30.51,SSE,150,7.0,-999.0,67,-99.99,,,-99.99,,2013-11-03 16:53:00,
2013-11-03 12:13:00,37.0,27.0,30.52,SE,144,8.0,-999.0,66,-99.99,,,-99.99,,2013-11-03 17:13:00,
2013-11-03 12:23:00,38.0,27.0,30.51,SE,136,8.0,-999.0,65,-99.99,,,-99.99,,2013-11-03 17:23:00,
2013-11-03 12:43:00,39.0,29.0,30.50,SE,128,8.0,-999.0,67,-99.99,,,-99.99,,2013-11-03 17:43:00,
2013-11-03 12:52:00,39.0,29.0,30.50,SSE,147,9.0,-999.0,66,-99.99,,,-99.99,,2013-11-03 17:52:00,
2013-11-03 13:11:00,39.0,29.0,30.50,SSE,162,9.0,-999.0,67,-99.99,,,-99.99,,2013-11-03 18:11:00,
2013-11-03 13:23:00,40.0,31.0,30.50,SSE,164,9.0,-999.0,70,-99.99,,,-99.99,,2013-11-03 18:23:00,
2013-11-03 13:42:00,39.0,29.0,30.50,SE,145,8.0,-999.0,68,-99.99,,,-99.99,,2013-11-03 18:42:00,
2013-11-03 13:52:00,39.0,29.0,30.51,SSE,159,8.0,-999.0,66,-99.99,,,-99.99,,2013-11-03 18:52:00,
2013-11-03 14:11:00,39.0,28.0,30.51,SSE,163,8.0,-999.0,64,-99.99,,,-99.99,,2013-11-03 19:11:00,
2013-11-03 14:22:00,40.0,28.0,30.50,SE,141,8.0,-999.0,63,-99.99,,,-99.99,,2013-11-03 19:22:00,
2013-11-03 14:42:00,40.0,30.0,30.50,South,183,8.0,-999.0,66,-99.99,,,-99.99,,2013-11-03 19:42:00,
2013-11-03 14:53:00,40.0,28.0,30.50,SSE,166,6.0,-999.0,62,-99.99,,,-99.99,,2013-11-03 19:53:00,
2013-11-03 15:11:00,40.0,30.0,30.50,SSE,155,6.0,-999.0,67,-99.99,,,-99.99,,2013-11-03 20:11:00,
2013-11-03 15:22:00,39.0,27.0,30.50,SE,134,6.0,-999.0,63,-99.99,,,-99.99,,2013-11-03 20:22:00,
2013-11-03 15:42:00,40.0,29.0,30.51,SE,131,7.0,-999.0,64,-99.99,,,-99.99,,2013-11-03 20:42:00,
2013-11-03 15:52:00,39.0,28.0,30.51,SSE,156,7.0,-999.0,65,-99.99,,,-99.99,,2013-11-03 20:52:00,
2013-11-03 16:12:00,39.0,28.0,30.51,SSE,161,7.0,-999.0,64,-99.99,,,-99.99,,2013-11-03 21:12:00,
2013-11-03 16:22:00,39.0,28.0,30.51,SE,140,8.0,-999.0,64,-99.99,,,-99.99,,2013-11-03 21:22:00,
2013-11-03 16:43:00,38.0,27.0,30.52,SSE,148,8.0,-999.0,65,-99.99,,,-99.99,,2013-11-03 21:43:00,
2013-11-03 16:54:00,38.0,28.0,30.52,SE,133,7.0,-999.0,66,-99.99,,,-99.99,,2013-11-03 21:54:00,
2013-11-03 17:13:00,37.0,27.0,30.52,ESE,123,5.0,-999.0,67,-99.99,,,-99.99,,2013-11-03 22:13:00,
2013-11-03 17:22:00,36.0,26.0,30.51,SE,133,4.0,-999.0,68,-99.99,,,-99.99,,2013-11-03 22:22:00,
2013-11-03 17:43:00,35.0,26.0,30.51,ESE,113,2.0,-999.0,69,-99.99,,,-99.99,,2013-11-03 22:43:00,
2013-11-03 17:52:00,35.0,26.0,30.52,East,99,2.0,-999.0,70,-99.99,,,-99.99,,2013-11-03 22:52:00,
2013-11-03 18:12:00,34.0,25.0,30.52,East,96,1.0,-999.0,70,-99.99,,,-99.99,,2013-11-03 23:12:00,
2013-11-03 18:23:00,33.0,25.0,30.52,East,99,1.0,-999.0,72,-99.99,,,-99.99,,2013-11-03 23:23:00,
2013-11-03 18:42:00,32.0,25.0,30.53,ESE,117,1.0,-999.0,74,-99.99,,,-99.99,,2013-11-03 23:42:00,
2013-11-03 18:53:00,32.0,26.0,30.53,ESE,113,1.0,-999.0,77,-99.99,,,-99.99,,2013-11-03 23:53:00,
2013-11-03 19:11:00,32.0,25.0,30.53,ESE,117,1.0,-999.0,76,-99.99,,,-99.99,,2013-11-04 00:11:00,
2013-11-03 19:22:00,31.0,25.0,30.54,ESE,117,0.0,-999.0,77,-99.99,,,-99.99,,2013-11-04 00:22:00,
2013-11-03 19:42:00,30.0,25.0,30.54,ESE,117,0.0,-999.0,80,-99.99,,,-99.99,,2013-11-04 00:42:00,
2013-11-03 19:52:00,31.0,25.0,30.55,ESE,110,1.0,-999.0,79,-99.99,,,-99.99,,2013-11-04 00:52:00,
2013-11-03 20:11:00,31.0,25.0,30.54,ESE,110,1.0,-999.0,78,-99.99,,,-99.99,,2013-11-04 01:11:00,
2013-11-03 20:22:00,31.0,25.0,30.54,ESE,104,1.0,-999.0,77,-99.99,,,-99.99,,2013-11-04 01:22:00,
2013-11-03 20:42:00,32.0,26.0,30.54,ESE,110,2.0,-999.0,77,-99.99,,,-99.99,,2013-11-04 01:42:00,
2013-11-03 20:52:00,32.0,25.0,30.53,ESE,113,3.0,-999.0,76,-99.99,,,-99.99,,2013-11-04 01:52:00,
2013-11-03 21:12:00,32.0,25.0,30.54,ESE,109,3.0,-999.0,76,-99.99,,,-99.99,,2013-11-04 02:12:00,
2013-11-03 21:22:00,32.0,25.0,30.53,East,98,3.0,-999.0,76,-99.99,,,-99.99,,2013-11-04 02:22:00,
2013-11-03 21:42:00,33.0,26.0,30.53,ESE,103,3.0,-999.0,76,-99.99,,,-99.99,,2013-11-04 02:42:00,
2013-11-03 21:52:00,33.0,26.0,30.53,East,87,3.0,-999.0,76,-99.99,,,-99.99,,2013-11-04 02:52:00,
2013-11-03 22:12:00,33.0,27.0,30.53,ENE,72,3.0,-999.0,77,-99.99,,,-99.99,,2013-11-04 03:12:00,
2013-11-03 22:22:00,33.0,27.0,30.54,East,91,3.0,-999.0,78,-99.99,,,-99.99,,2013-11-04 03:22:00,
2013-11-03 22:44:00,33.0,27.0,30.54,East,88,3.0,-999.0,79,-99.99,,,-99.99,,2013-11-04 03:44:00,
2013-11-03 22:54:00,33.0,28.0,30.54,East,83,3.0,-999.0,81,-99.99,,,-99.99,,2013-11-04 03:54:00,
2013-11-03 23:13:00,32.0,27.0,30.54,East,88,2.0,-999.0,82,-99.99,,,-99.99,,2013-11-04 04:13:00,
2013-11-03 23:24:00,33.0,28.0,30.54,East,94,2.0,-999.0,83,-99.99,,,-99.99,,2013-11-04 04:24:00,
2013-11-03 23:43:00,33.0,29.0,30.54,East,90,3.0,-999.0,84,-99.99,,,-99.99,,2013-11-04 04:43:00,
2013-11-03 23:52:00,34.0,30.0,30.53,SSE,148,2.0,-999.0,86,-99.99,,,-99.99,,2013-11-04 04:52:00,